Home   Weather   Des Moines   Past weeks
Flag for USA

Past Weather in Des Moines, Iowa, USA — Yesterday and Last 2 Weeks

Now
88 °F

Passing clouds.


Feels Like: 95 °F
Forecast: 96 / 80 °F
Wind: 10 mph from Southwest

Location: Des Moines International Airport

Current Time: Jul 19, 2019 at 11:50:34 am

Latest Report: Jul 19, 2019 at 10:54 am


Visibility: 10 mi

Pressure: 29.76 "Hg

Humidity: 59%

Dew Point: 72 °F

Location of Des MoinesLocation

Past Weather in Des Moines — Graph

°F

Des Moines Temperature Yesterday

Maximum temperature yesterday: 95 °F (at 3:54 pm)
Minimum temperature yesterday: 76 °F (at 12:54 am)
Average temperature yesterday: 86 °F

High & Low Weather Summary for the Past Weeks

 TemperatureHumidityPressure
High95 °F (Jul 18, 3:54 pm)93% (Jul 17, 12:05 pm)30.09 "Hg (Jul 17, 12:05 pm)
Low65 °F (Jul 12, 2:54 am)38% (Jul 14, 3:54 pm)29.62 "Hg (Jul 18, 6:54 pm)
Average79 °F68%29.93 "Hg
* Reported Jul 4 9:54 am — Jul 19 9:54 am, Des Moines. Weather by CustomWeather, © 2019

Note: Actual official high and low records may vary slightly from our data, if they occured in-between our weather recording intervals... More about our weather records

Advertising

Des Moines Weather History for the Previous 24 Hours

Scroll right to see more
 ConditionsComfort  
Time TempWeatherWind HumidityBarometerVisibility
9:54 am
Fri, Jul 19
86 °FSunny.12 mph63%29.76 "Hg10 mi
8:54 am84 °FSunny.13 mph65%29.76 "Hg10 mi
7:54 am82 °FPassing clouds.9 mph72%29.75 "Hg10 mi
6:54 am80 °FPassing clouds.6 mph76%29.74 "Hg10 mi
5:54 am81 °FPassing clouds.7 mph74%29.72 "Hg10 mi
4:54 am82 °FClear.10 mph72%29.70 "Hg10 mi
3:54 am83 °FClear.14 mph72%29.68 "Hg10 mi
2:54 am83 °FClear.16 mph72%29.67 "Hg10 mi
1:54 am84 °FClear.16 mph72%29.68 "Hg10 mi
12:54 am85 °FClear.15 mph70%29.67 "Hg10 mi
11:54 pm
Thu, Jul 18
84 °FClear.12 mph74%29.67 "Hg10 mi
10:54 pm85 °FClear.12 mph72%29.67 "Hg10 mi
9:54 pm86 °FClear.10 mph70%29.67 "Hg10 mi
8:54 pm89 °FPassing clouds.10 mph61%29.65 "Hg10 mi
7:54 pm91 °FPassing clouds.10 mph60%29.64 "Hg10 mi
6:54 pm93 °FPassing clouds.13 mph56%29.62 "Hg10 mi
5:54 pm93 °FPassing clouds.17 mph56%29.64 "Hg10 mi
4:54 pm94 °FPassing clouds.15 mph54%29.65 "Hg10 mi
3:54 pm95 °FPassing clouds.17 mph51%29.65 "Hg10 mi
2:54 pm93 °FPassing clouds.15 mph56%29.67 "Hg10 mi
1:54 pm90 °FPartly sunny.9 mph59%29.70 "Hg10 mi
12:54 pm91 °FPassing clouds.12 mph57%29.71 "Hg10 mi
11:54 am90 °FScattered clouds.17 mph57%29.73 "Hg10 mi
Weather by CustomWeather, © 2019

See weather overview